SAS1CH EGPB-ENHD

Flight info

Callsign SAS1CH
Flight time 0h 40m
Altitude 31000
Route ORVIK DCT BALDU DCT EDODI
Aircraft B736/M-SDE2E3FGHIRWXY/LB1

Departure

Time 2026-04-18 07:29
Airport Sumburgh Airport (EGPB)

Arrival

Time 2026-04-18 08:09
Airport Haugesund Airport, Karmøy (ENHD)
Time Latitude Longitude Altitude Speed Heading
2026-04-18 07:24 59.87763 -1.29123 42 ft 0 kts 90°
2026-04-18 07:25 59.87757 -1.29116 40 ft 2 kts 157°
2026-04-18 07:26 59.87752 -1.29142 40 ft 4 kts 278°
2026-04-18 07:26 59.87802 -1.29248 43 ft 17 kts 322°
2026-04-18 07:26 59.87909 -1.29408 41 ft 18 kts 338°
2026-04-18 07:26 59.88023 -1.29334 42 ft 18 kts 36°
2026-04-18 07:27 59.88127 -1.29192 43 ft 18 kts 37°
2026-04-18 07:27 59.88166 -1.28965 43 ft 19 kts 83°
2026-04-18 07:27 59.88183 -1.28660 46 ft 25 kts 83°
2026-04-18 07:27 59.88198 -1.28315 45 ft 17 kts 98°
2026-04-18 07:28 59.88191 -1.28253 44 ft 0 kts 89°
2026-04-18 07:28 59.88190 -1.28250 42 ft 2 kts 95°
2026-04-18 07:28 59.88178 -1.28198 45 ft 5 kts 98°
2026-04-18 07:28 59.88215 -1.28196 45 ft 10 kts 276°
2026-04-18 07:29 59.88213 -1.28247 43 ft 0 kts 263°
2026-04-18 07:29 59.88192 -1.28592 46 ft 70 kts 263°
2026-04-18 07:29 59.88112 -1.30154 78 ft 151 kts 264°
2026-04-18 07:29 59.88139 -1.32352 885 ft 168 kts 265°
2026-04-18 07:30 59.87998 -1.34639 1957 ft 170 kts 242°
2026-04-18 07:30 59.87217 -1.36503 2711 ft 192 kts 214°
2026-04-18 07:30 59.85826 -1.37455 3152 ft 233 kts 184°
2026-04-18 07:30 59.84211 -1.36629 4262 ft 249 kts 152°
2026-04-18 07:31 59.83071 -1.33996 5548 ft 263 kts 118°
2026-04-18 07:31 59.82589 -1.30419 6700 ft 272 kts 108°
2026-04-18 07:31 59.82238 -1.26704 7823 ft 278 kts 106°
2026-04-18 07:31 59.81902 -1.22837 8790 ft 288 kts 105°
2026-04-18 07:32 59.81563 -1.18854 9813 ft 296 kts 105°
2026-04-18 07:32 59.81208 -1.14727 10539 ft 313 kts 105°
2026-04-18 07:32 59.80818 -1.10291 11017 ft 335 kts 105°
2026-04-18 07:32 59.80418 -1.05728 11942 ft 341 kts 104°
2026-04-18 07:33 59.80005 -1.01012 13050 ft 343 kts 104°
2026-04-18 07:33 59.79596 -0.96396 14018 ft 346 kts 104°
2026-04-18 07:33 59.79172 -0.91653 14880 ft 352 kts 104°
2026-04-18 07:33 59.78737 -0.86835 15720 ft 357 kts 104°
2026-04-18 07:34 59.78293 -0.81951 16590 ft 362 kts 104°
2026-04-18 07:34 59.77841 -0.77003 17482 ft 367 kts 104°
2026-04-18 07:34 59.77380 -0.71988 18312 ft 372 kts 104°
2026-04-18 07:34 59.76912 -0.66911 19091 ft 376 kts 104°
2026-04-18 07:35 59.76438 -0.61799 19899 ft 379 kts 104°
2026-04-18 07:35 59.75957 -0.56634 20685 ft 382 kts 104°
2026-04-18 07:35 59.75468 -0.51420 21475 ft 386 kts 105°
2026-04-18 07:35 59.74973 -0.46151 22248 ft 391 kts 105°
2026-04-18 07:36 59.74469 -0.40828 23029 ft 395 kts 105°
2026-04-18 07:36 59.73959 -0.35450 23731 ft 399 kts 105°
2026-04-18 07:36 59.73440 -0.30018 24359 ft 403 kts 105°
2026-04-18 07:36 59.72916 -0.24546 24989 ft 407 kts 105°
2026-04-18 07:37 59.72389 -0.19071 25607 ft 411 kts 105°
2026-04-18 07:37 59.71842 -0.13412 26227 ft 415 kts 105°
2026-04-18 07:37 59.71294 -0.07774 26877 ft 417 kts 105°
2026-04-18 07:37 59.70762 -0.02303 27652 ft 416 kts 105°
2026-04-18 07:38 59.70216 0.03285 28482 ft 413 kts 107°
2026-04-18 07:38 59.69667 0.08875 29280 ft 412 kts 107°
2026-04-18 07:38 59.69141 0.14195 29992 ft 412 kts 107°
2026-04-18 07:38 59.68587 0.19755 30585 ft 412 kts 107°
2026-04-18 07:39 59.68026 0.25362 30870 ft 417 kts 107°
2026-04-18 07:39 59.67461 0.30983 30879 ft 415 kts 107°
2026-04-18 07:39 59.66334 0.42162 30903 ft 414 kts 107°
2026-04-18 07:40 59.65196 0.53340 30911 ft 415 kts 107°
2026-04-18 07:40 59.64028 0.64529 30907 ft 414 kts 110°
2026-04-18 07:41 59.63127 0.69860 30898 ft 404 kts 121°
2026-04-18 07:41 59.61893 0.74818 30905 ft 401 kts 123°
2026-04-18 07:41 59.59387 0.84563 30900 ft 404 kts 118°
2026-04-18 07:42 59.58169 0.95554 30911 ft 419 kts 98°
2026-04-18 07:42 59.58022 1.07096 30926 ft 421 kts 97°
2026-04-18 07:43 59.57894 1.18631 30926 ft 421 kts 97°
2026-04-18 07:43 59.57733 1.30191 30890 ft 421 kts 98°
2026-04-18 07:44 59.57549 1.41737 30930 ft 420 kts 98°
2026-04-18 07:44 59.57350 1.53177 30935 ft 420 kts 98°
2026-04-18 07:45 59.57139 1.64713 30946 ft 420 kts 98°
2026-04-18 07:45 59.56919 1.76218 30929 ft 414 kts 99°
2026-04-18 07:46 59.56749 1.85374 30934 ft 389 kts 99°
2026-04-18 07:46 59.56648 1.90615 30935 ft 375 kts 99°
2026-04-18 07:46 59.56547 1.95661 30893 ft 362 kts 100°
2026-04-18 07:47 59.56445 2.00526 30879 ft 350 kts 100°
2026-04-18 07:47 59.56343 2.05278 30758 ft 341 kts 101°
2026-04-18 07:47 59.56237 2.09935 30470 ft 339 kts 101°
2026-04-18 07:47 59.56127 2.14593 30042 ft 342 kts 101°
2026-04-18 07:48 59.56012 2.19300 29474 ft 346 kts 101°
2026-04-18 07:48 59.55891 2.24131 28413 ft 361 kts 101°
2026-04-18 07:48 59.55757 2.29224 27102 ft 383 kts 101°
2026-04-18 07:48 59.55621 2.34512 26170 ft 395 kts 100°
2026-04-18 07:49 59.55491 2.39982 25612 ft 393 kts 100°
2026-04-18 07:49 59.55369 2.45271 25218 ft 388 kts 100°
2026-04-18 07:49 59.55246 2.50550 24787 ft 384 kts 100°
2026-04-18 07:49 59.55119 2.55774 24314 ft 381 kts 101°
2026-04-18 07:50 59.54988 2.60982 23805 ft 379 kts 101°
2026-04-18 07:50 59.54853 2.66157 23305 ft 377 kts 101°
2026-04-18 07:50 59.54717 2.71285 22793 ft 374 kts 101°
2026-04-18 07:50 59.54580 2.76380 22307 ft 371 kts 101°
2026-04-18 07:51 59.54441 2.81441 21811 ft 368 kts 101°
2026-04-18 07:51 59.54302 2.86445 21362 ft 365 kts 101°
2026-04-18 07:51 59.54161 2.91435 20883 ft 363 kts 101°
2026-04-18 07:51 59.54019 2.96382 20413 ft 360 kts 101°
2026-04-18 07:52 59.53878 3.01282 20053 ft 355 kts 101°
2026-04-18 07:52 59.53742 3.06043 19997 ft 341 kts 101°
2026-04-18 07:52 59.53613 3.10610 19979 ft 326 kts 101°
2026-04-18 07:52 59.53486 3.14982 19897 ft 315 kts 102°
2026-04-18 07:53 59.53356 3.19254 19628 ft 311 kts 102°
2026-04-18 07:53 59.53221 3.23506 19213 ft 312 kts 102°
2026-04-18 07:53 59.53077 3.27855 18345 ft 327 kts 102°
2026-04-18 07:53 59.52919 3.32443 17387 ft 343 kts 101°
2026-04-18 07:54 59.52765 3.37170 16805 ft 345 kts 100°
2026-04-18 07:54 59.52617 3.41852 16404 ft 341 kts 100°
2026-04-18 07:54 59.52473 3.46429 15996 ft 337 kts 100°
2026-04-18 07:54 59.52326 3.51023 15580 ft 335 kts 100°
2026-04-18 07:55 59.52177 3.55589 15154 ft 332 kts 100°
2026-04-18 07:55 59.52027 3.60121 14737 ft 330 kts 100°
2026-04-18 07:55 59.51875 3.64616 14334 ft 328 kts 100°
2026-04-18 07:55 59.51722 3.69097 13917 ft 325 kts 100°
2026-04-18 07:56 59.51570 3.73519 13480 ft 323 kts 100°
2026-04-18 07:56 59.51416 3.77925 13055 ft 320 kts 99°
2026-04-18 07:56 59.51263 3.82270 12627 ft 317 kts 99°
2026-04-18 07:56 59.51109 3.86603 12208 ft 315 kts 99°
2026-04-18 07:57 59.50955 3.90885 11773 ft 313 kts 100°
2026-04-18 07:57 59.50804 3.95082 11407 ft 309 kts 100°
2026-04-18 07:57 59.50652 3.99269 10980 ft 303 kts 100°
2026-04-18 07:57 59.50500 4.03394 10629 ft 299 kts 100°
2026-04-18 07:58 59.50212 4.11249 10368 ft 278 kts 100°
2026-04-18 07:58 59.50069 4.15030 10073 ft 276 kts 101°
2026-04-18 07:58 59.49925 4.18786 9731 ft 275 kts 100°
2026-04-18 07:59 59.49780 4.22523 9372 ft 273 kts 100°
2026-04-18 07:59 59.49634 4.26254 9011 ft 272 kts 100°
2026-04-18 07:59 59.49489 4.29963 8644 ft 272 kts 100°
2026-04-18 07:59 59.49343 4.33657 8291 ft 271 kts 100°
2026-04-18 08:00 59.49197 4.37348 7949 ft 270 kts 100°
2026-04-18 08:00 59.49051 4.41021 7623 ft 268 kts 99°
2026-04-18 08:00 59.48905 4.44669 7305 ft 267 kts 99°
2026-04-18 08:00 59.48758 4.48310 6944 ft 267 kts 99°
2026-04-18 08:01 59.48610 4.51950 6631 ft 266 kts 99°
2026-04-18 08:01 59.48465 4.55520 6317 ft 263 kts 100°
2026-04-18 08:01 59.48323 4.59027 6062 ft 253 kts 101°
2026-04-18 08:01 59.48180 4.62472 5490 ft 254 kts 100°
2026-04-18 08:02 59.48034 4.65932 4956 ft 253 kts 100°
2026-04-18 08:02 59.47888 4.69396 4587 ft 254 kts 100°
2026-04-18 08:02 59.47744 4.72821 4423 ft 247 kts 100°
2026-04-18 08:02 59.47605 4.76128 4294 ft 238 kts 101°
2026-04-18 08:03 59.47471 4.79318 4184 ft 230 kts 101°
2026-04-18 08:03 59.47339 4.82404 4098 ft 223 kts 101°
2026-04-18 08:03 59.47211 4.85403 3995 ft 218 kts 101°
2026-04-18 08:03 59.47082 4.88348 3884 ft 213 kts 101°
2026-04-18 08:04 59.46954 4.91249 3676 ft 213 kts 101°
2026-04-18 08:04 59.46822 4.94159 3459 ft 213 kts 101°
2026-04-18 08:04 59.46415 4.96827 3171 ft 197 kts 133°
2026-04-18 08:04 59.45508 4.98695 2960 ft 184 kts 140°
2026-04-18 08:05 59.44640 5.00454 2723 ft 174 kts 139°
2026-04-18 08:05 59.43820 5.02116 2487 ft 165 kts 140°
2026-04-18 08:05 59.43049 5.03681 2274 ft 153 kts 140°
2026-04-18 08:05 59.42343 5.05122 2086 ft 138 kts 140°
2026-04-18 08:06 59.41691 5.06455 1956 ft 134 kts 141°
2026-04-18 08:06 59.41062 5.07729 1768 ft 123 kts 141°
2026-04-18 08:06 59.40515 5.08833 1665 ft 106 kts 143°
2026-04-18 08:06 59.40019 5.09825 1515 ft 102 kts 143°
2026-04-18 08:07 59.39524 5.10813 1376 ft 100 kts 143°
2026-04-18 08:07 59.39043 5.11775 1264 ft 97 kts 143°
2026-04-18 08:07 59.38566 5.12728 1119 ft 98 kts 142°
2026-04-18 08:07 59.38091 5.13679 998 ft 98 kts 142°
2026-04-18 08:08 59.37585 5.14689 862 ft 107 kts 140°
2026-04-18 08:08 59.37072 5.15721 700 ft 103 kts 140°
2026-04-18 08:08 59.36555 5.16759 575 ft 109 kts 137°
2026-04-18 08:08 59.35999 5.17876 430 ft 116 kts 136°
2026-04-18 08:09 59.35436 5.19031 245 ft 115 kts 135°
2026-04-18 08:09 59.34892 5.20123 80 ft 106 kts 137°
2026-04-18 08:09 59.34457 5.20979 84 ft 68 kts 134°
2026-04-18 08:09 59.34260 5.21378 85 ft 13 kts 122°
2026-04-18 08:10 59.34290 5.21519 88 ft 12 kts 43°
2026-04-18 08:10 59.34352 5.21593 86 ft 9 kts 336°
2026-04-18 08:10 59.34399 5.21507 88 ft 9 kts 321°
2026-04-18 08:10 59.34439 5.21536 89 ft 3 kts 45°
2026-04-18 08:11 59.34449 5.21556 86 ft 2 kts 45°
2026-04-18 08:11 59.34452 5.21561 86 ft 0 kts 45°